FREGAT DEB (TANK), 41108

Orbit data source: Space-Track

FREGAT DEB (TANK), 41108 is space debris in LEO originally from a launch on Fri, 11 Dec 2015 UTC launched from the Tyuratam Missile And Space Complex (TTMTR). Debris objects in space refer to the collection of defunct objects orbiting the Earth. Examples of debris include non-operational satellites, rocket bodies, and fragments generated from explosions, collisions, or faulty payload assembly.

Loading next visibility...
Identifier
41108, 2015-074D
Orbit
LEO
Country
Flag of CISCIS
Related business
Manufacturer
Lavochkin
Mission
Spacecraft
Bus & Motor
FREGAT SBB, Unknown motor
Mass
360 kg wet, 360 kg dry
Launch date (UTC)
2015-12-11 (10 years ago)
Launch vehicle
Unknown
Launch site
Tyuratam Missile And Space Complex (TTMTR)
Object type
Payload
Rocket body
Debris
Shape & HBR
Torus, 1.9 m
Radar Cross Section
6.703 m², Large (>1 m²)

Expand to show TLE details & history
Last TLE update: 1 day ago

TLE from 1 day ago
0 FREGAT DEB (TANK)
1 41108U 15074D   25312.68286404  .00115591  70998-5  15595-2 0  9999
2 41108  50.3073 202.0379 1198867 330.9750  22.9267 13.26795764420301
Epoch: 2025-11-08T16:23Z
TLE epoch observation values (Epoch: 2025-11-08T16:23:19.453Z)
Latitude
0.00005°
Longitude
-91.90207°
Altitude
346.88 km
Speed
8.106 km/s
True Right ascension
13h 28m 09s
True Declination
0° 00' 00"
Sunlit
Object was in daylight at epoch
Visualization orbit readout
Latitude
Unknown
Longitude
Unknown
Altitude
Unknown
Speed
Unknown
Apparent Right ascension
Unknown
Apparent Declination
Unknown
Sunlit
N/A
Visualization observer readout
Local Sidereal Time
16:22:58
Azimuth
Unknown
Elevation
Unknown
Doppler factor
Unknown
Orbital elements
Apogee altitude
2,063.214 km
Perigee altitude
255.878 km
Semi-major axis
7,537.683 km
Eccentricity
0.11989
Inclination
50.3073°
RAAN
202.0379°
Arg. of periapsis
330.975°
True anomaly
29.11651°
Mean anomaly
22.9267°
Eccentric anomaly
25.93037°
Mean motion
3.31655 °/min
Orbital period
108.55 mins
BSTAR
0.0015595
Loading maneuver chart data...
Computing Atmospheric mass density...
Loading historical data...
Loading historical data...
Loading historical data...
Loading historical data...
Loading historical data...
Loading historical data...
Loading historical data...

Documentation

Showing up to 5 results
|